Theta_e
310 310 309 308 308 308 308 308 309 310 311 313 315 315 313 315 316 318 318 316 317 316 318 318 319 318 319 320 319 318 320 321 321 321 322 321 321 321 320 321 321 321 321 320 320
309 308 309 309 310 309 309 309 310 311 312 315 317 316 315 315 318 317 316 317 317 316 318 320 320 320 320 321 321 321 321 321 320 321 321 321 321 320 320 321 321 321 320 320 321
309 310 310 310 310 309 309 310 311 312 314 315 318 317 316 315 318 318 316 317 317 318 317 318 319 320 320 320 321 321 321 320 320 320 320 320 319 319 320 321 320 319 320 320 320
310 310 310 310 310 310 310 311 312 314 315 314 318 317 315 318 317 317 317 315 316 317 318 318 320 320 320 320 320 321 320 320 320 320 320 320 318 318 319 320 318 319 319 319 320
310 311 311 310 310 310 311 312 313 314 315 313 317 317 319 318 318 317 317 316 317 317 318 319 319 319 319 319 319 320 320 319 319 319 319 319 318 318 318 318 318 318 319 319 320
310 311 311 311 311 311 312 313 313 314 314 313 315 317 318 317 317 317 317 317 318 318 318 318 318 319 319 319 320 319 319 319 319 319 319 318 318 318 319 318 319 319 319 320 320
309 311 312 312 312 312 312 312 313 314 313 313 314 318 318 317 318 318 317 317 317 317 319 317 318 319 319 319 319 319 319 319 319 319 318 318 319 318 319 318 318 319 319 319 319
306 311 312 313 314 315 314 312 313 313 313 312 314 319 319 320 319 319 318 317 317 317 317 318 318 319 320 319 319 318 319 319 320 319 318 318 317 319 319 318 318 319 319 319 320
305 309 312 313 315 315 317 317 314 312 313 314 319 321 321 319 319 318 318 318 317 317 317 316 319 319 320 320 320 320 319 319 318 319 318 318 318 318 318 318 318 318 318 318 321
306 306 311 313 315 317 318 318 318 317 318 316 318 322 320 320 320 318 317 317 318 319 319 319 320 321 321 321 320 320 319 319 319 319 319 318 318 317 317 317 317 317 317 318 321
308 306 309 313 315 317 318 318 321 321 320 320 320 319 319 319 319 320 318 318 319 319 320 320 320 321 321 321 320 320 320 320 320 320 318 319 318 318 317 316 316 316 318 320 321
310 307 307 312 315 317 319 320 320 320 323 319 319 319 318 318 320 319 318 319 319 320 319 320 321 320 319 320 320 320 321 321 320 319 319 319 319 318 316 316 316 317 318 321 322
312 308 307 314 318 319 320 319 318 318 323 321 320 321 320 320 320 320 319 319 319 319 319 319 319 319 319 320 321 321 321 321 320 319 319 319 317 316 316 316 317 318 320 321 322
311 308 308 314 319 321 321 319 317 318 326 322 320 318 318 320 320 319 318 318 319 318 318 319 319 319 320 320 320 321 319 318 319 320 319 317 317 315 316 316 317 317 320 322 322
308 307 310 316 321 321 320 317 318 322 331 323 318 317 319 319 320 320 318 318 318 318 318 319 319 320 319 320 319 320 318 318 318 319 318 317 318 318 317 317 317 318 320 321 322
308 309 314 320 322 317 317 318 323 333 330 321 319 319 320 320 320 319 319 319 319 319 320 319 318 318 319 319 318 318 318 319 319 318 319 317 318 316 316 317 316 319 320 321 321
314 315 316 319 320 317 318 322 330 327 320 320 320 320 321 320 320 320 320 321 321 320 319 318 319 319 319 320 318 318 321 326 319 322 322 318 318 318 317 316 317 317 318 319 320
317 316 315 316 319 318 322 326 325 320 321 319 320 320 321 320 320 319 321 320 320 319 320 320 319 318 319 318 318 318 320 321 325 320 317 317 317 319 318 318 319 318 319 319 318
319 320 318 315 317 320 325 321 323 322 320 320 321 321 321 320 319 320 321 320 320 319 319 321 319 318 317 317 318 320 320 320 324 321 321 319 317 318 318 317 317 318 319 319 318
325 322 317 314 317 325 326 322 322 320 320 320 322 320 320 320 320 321 319 319 319 319 319 320 323 317 316 317 318 319 318 322 324 326 321 316 317 316 318 317 317 317 317 318 318
325 325 315 314 319 325 325 323 320 319 319 320 320 320 320 320 320 320 319 318 318 318 318 318 322 318 317 318 318 318 320 319 320 321 325 322 318 317 318 318 318 318 318 318 318
322 324 313 315 321 322 322 320 315 319 318 318 320 320 320 320 319 318 318 318 318 318 318 318 319 321 318 316 316 317 318 318 329 322 320 325 326 318 318 319 320 319 320 318 318
318 316 312 317 320 318 318 318 317 317 317 318 319 318 318 318 323 317 317 317 317 317 318 317 321 323 317 317 317 317 316 316 317 320 323 327 323 317 316 319 318 318 317 317 317
317 317 314 315 316 317 317 317 316 315 316 316 317 316 317 317 317 317 316 314 316 316 317 317 318 320 323 320 318 318 317 316 318 325 323 323 320 318 316 316 317 317 316 315 315
313 314 311 313 314 315 315 315 314 314 314 313 316 315 316 316 313 313 314 313 313 315 316 318 321 319 317 316 316 317 317 316 317 317 320 318 318 316 315 318 316 315 314 314 314
314 313 312 312 313 313 311 315 314 312 312 314 316 315 313 312 312 313 313 314 315 315 315 315 319 318 318 316 315 315 315 314 314 314 315 315 316 313 314 315 314 313 314 314 313
308 309 312 308 312 311 312 311 310 311 312 312 312 311 311 312 312 313 313 314 314 315 316 317 318 320 321 314 314 318 316 313 312 313 316 320 315 314 316 314 314 314 314 314 311
Wind_Speed
10 9 8 7 7 6 6 5 7 7 7 8 10 9 9 11 10 10 16 10 10 11 7 1 5 5 5 6 4 3 4 6 4 5 5 4 4 7 2 4 8 6 7 5 7
9 8 8 7 7 6 6 7 8 7 7 9 9 7 7 7 12 18 11 13 12 12 6 1 6 4 5 4 3 3 2 5 4 5 3 3 5 4 1 3 6 7 10 9 7
9 9 9 7 6 6 7 9 8 7 8 11 8 4 2 2 6 13 12 12 12 11 8 3 5 4 5 6 4 6 6 5 5 3 4 4 5 3 3 3 5 6 7 7 6
8 9 9 7 7 7 8 8 8 7 8 11 7 1 2 5 3 6 9 11 11 9 8 9 3 3 3 6 4 8 4 2 3 1 2 4 2 2 3 5 3 3 4 5 6
7 8 8 7 7 7 7 7 6 6 8 10 9 3 2 6 10 4 7 9 9 11 12 8 6 4 4 5 5 4 4 3 4 3 1 3 1 5 6 1 1 2 5 6 7
6 7 7 6 6 5 5 5 4 4 6 9 10 5 2 11 2 4 6 5 9 10 11 10 7 7 5 4 3 2 1 3 3 4 2 6 4 6 4 2 6 6 8 8 8
4 4 5 5 4 3 2 2 2 2 4 7 8 3 3 8 2 2 3 4 5 7 11 7 4 2 1 5 2 1 8 6 3 2 2 5 12 12 2 5 8 9 10 9 10
3 2 2 3 3 3 2 2 3 1 3 5 6 2 6 3 1 1 1 3 4 6 7 6 4 6 3 2 4 3 5 5 5 3 6 6 13 4 3 7 10 13 12 8 10
4 0 1 1 2 5 2 1 4 3 3 4 2 5 8 2 2 2 2 3 2 1 3 2 1 3 5 3 6 2 6 6 6 1 6 7 12 11 10 11 15 15 14 7 7
8 1 3 2 1 4 2 2 1 2 2 1 1 5 5 4 1 3 2 4 3 4 6 3 2 5 3 6 6 8 10 8 10 6 10 15 16 14 15 15 17 16 15 6 7
8 2 5 4 1 1 1 2 5 5 4 4 3 2 3 2 1 2 2 4 4 5 6 0 10 4 6 4 7 9 11 12 11 12 11 15 17 18 18 18 14 10 4 5 6
6 2 6 6 1 4 3 2 5 4 2 1 0 2 1 1 3 5 2 4 4 7 3 8 7 2 5 6 8 11 13 13 12 6 13 18 22 19 14 12 8 6 5 7 6
5 2 7 8 9 7 8 5 4 2 3 5 4 4 4 4 3 5 7 4 7 7 6 9 12 2 6 10 10 14 11 13 14 16 18 19 20 9 6 7 7 6 4 5 6
6 4 10 10 7 5 4 5 5 4 6 7 5 4 1 1 4 7 6 5 6 9 9 9 4 5 9 13 6 14 8 8 13 16 15 15 12 15 6 8 10 9 7 8 8
9 6 10 6 7 2 3 6 2 3 5 5 5 2 2 2 3 5 4 5 9 10 5 3 7 9 11 6 3 12 6 14 16 17 18 18 8 3 5 11 11 6 9 9 8
13 11 11 6 4 3 5 2 4 5 3 5 3 1 4 2 3 6 5 3 3 5 4 6 3 6 4 0 3 8 14 16 11 9 10 4 7 11 6 6 7 7 7 7 7
14 13 10 5 3 6 4 5 5 5 3 4 1 1 1 3 0 5 6 5 5 5 4 11 3 3 3 7 6 6 11 6 5 6 11 3 8 15 15 11 11 10 8 8 8
7 9 10 9 5 5 4 5 6 2 2 3 2 2 4 5 1 7 7 3 2 7 8 5 3 0 3 9 12 13 8 5 6 9 16 18 11 4 4 4 6 7 7 6 9
1 3 5 13 6 5 5 4 3 2 2 3 4 4 3 1 5 5 7 4 3 4 5 8 4 3 12 14 7 2 7 6 8 16 14 12 13 13 15 12 10 13 9 12 13
2 2 9 15 7 4 4 4 3 3 4 2 4 2 4 5 5 6 5 4 3 2 2 4 9 11 5 7 12 10 5 5 4 5 13 13 21 16 6 3 7 11 11 14 9
1 3 11 11 4 3 1 4 4 5 5 3 3 5 4 7 5 8 4 3 1 2 4 8 4 6 9 8 14 7 10 10 9 11 15 18 11 14 15 17 17 10 10 17 16
3 2 15 7 1 1 3 2 1 3 3 1 3 4 4 3 7 6 5 2 1 4 11 6 6 14 20 19 13 11 14 16 10 18 18 16 22 18 19 16 26 17 17 17 15
3 3 10 8 1 3 3 3 3 3 4 3 1 2 1 5 4 5 7 1 4 9 3 5 4 7 9 7 4 7 8 11 17 19 24 18 19 17 19 13 18 12 8 14 18
2 1 4 6 3 4 2 3 1 3 2 3 3 2 4 5 4 7 10 5 1 6 9 7 11 14 13 19 18 21 22 21 21 12 21 22 29 26 24 19 17 17 16 17 19
4 3 3 3 5 4 3 1 2 2 1 2 3 2 3 5 11 13 7 10 12 3 3 4 13 15 18 20 21 23 23 21 21 24 21 23 25 20 17 15 15 12 16 20 22
3 3 2 2 0 3 0 2 3 3 2 1 4 1 7 11 13 18 16 12 9 6 3 9 12 14 20 20 18 19 22 24 15 16 18 21 24 18 20 17 15 18 21 23 25
5 2 4 3 1 3 2 2 3 4 3 3 5 10 12 8 9 13 13 14 16 16 16 13 9 10 15 15 20 18 7 14 18 15 13 12 21 23 19 17 19 23 24 26 23
Wind_Direction
64 56 46 36 33 32 41 71 98 95 73 45 38 60 97 100 80 74 51 14 5 19 24 141 144 113 100 88 58 256 217 140 117 191 101 53 351 51 48 50 59 62 42 17 8
55 44 32 21 24 37 69 96 103 90 63 42 43 73 103 110 86 61 24 23 23 28 19 9 96 158 91 77 43 330 112 77 64 74 23 353 332 2 297 103 91 81 73 66 62
44 33 24 20 45 69 94 106 103 83 56 39 53 68 73 12 87 49 17 23 21 21 17 122 108 86 87 63 32 23 85 120 112 37 338 329 273 325 267 153 65 52 37 35 40
38 30 33 43 68 89 105 111 105 84 57 41 45 80 339 277 70 50 13 19 24 24 48 146 193 127 66 83 90 112 81 30 67 94 270 262 23 214 287 69 53 19 3 337 353
37 39 40 54 70 90 106 111 103 77 51 34 40 95 216 109 89 28 22 22 38 41 42 52 71 75 70 105 96 54 84 99 104 118 187 183 107 316 208 86 275 288 254 322 333
39 42 46 55 70 90 108 118 106 69 41 27 30 69 227 94 75 17 14 40 36 41 46 44 57 65 91 101 352 47 81 138 98 62 143 250 274 239 211 232 265 269 302 310 317
36 49 52 56 57 68 115 156 145 59 27 16 14 61 78 87 98 10 16 31 25 26 48 48 43 356 213 144 91 196 239 186 163 356 138 301 253 228 93 274 267 265 281 288 299
26 51 74 66 38 14 315 225 213 238 344 350 356 309 93 128 311 218 53 102 58 41 51 55 70 84 6 98 181 277 246 291 88 304 124 289 279 233 88 260 272 278 275 277 286
17 166 160 113 26 1 1 238 235 244 300 328 307 270 126 163 170 33 322 358 8 38 66 104 276 27 196 248 192 145 331 312 316 130 307 276 302 285 287 280 280 278 275 274 276
8 270 200 197 348 9 72 103 121 196 265 301 257 222 168 94 31 326 317 286 295 283 222 251 239 230 179 336 359 326 316 308 302 342 314 290 282 293 292 280 278 281 279 266 245
356 327 201 195 226 9 186 193 204 183 209 342 70 349 98 24 259 93 331 274 271 256 291 10 288 320 348 317 320 308 297 291 297 327 295 294 293 290 295 295 288 284 278 216 244
343 315 189 179 168 120 96 59 39 5 155 77 24 247 282 285 177 53 322 261 262 288 266 239 261 337 299 282 276 294 289 287 309 277 309 300 295 291 281 279 301 286 244 220 211
348 186 172 159 128 99 89 61 325 231 224 110 95 85 70 209 63 43 344 331 288 286 268 287 303 1 268 276 272 288 286 297 310 310 287 291 286 275 219 263 248 224 271 241 235
22 147 158 149 159 148 88 346 312 215 206 143 156 91 124 213 141 25 10 318 259 305 327 282 21 284 276 283 293 293 13 302 287 294 295 318 291 285 213 247 226 260 239 220 208
40 110 141 158 115 168 1 335 164 224 217 117 109 63 100 267 353 60 17 295 296 311 268 360 305 305 288 338 313 305 323 295 291 288 288 274 238 113 184 260 251 263 221 228 227
64 96 115 92 90 66 332 285 217 226 174 138 125 183 220 60 81 352 358 323 302 283 257 296 310 276 330 347 299 317 285 285 282 269 259 277 239 285 292 295 266 227 237 231 244
76 80 87 71 35 322 315 206 222 267 138 133 133 330 22 1 100 352 345 12 2 321 320 313 178 150 263 271 276 262 303 308 277 219 274 107 262 260 286 275 264 261 266 252 259
71 68 53 35 342 334 235 220 246 66 49 89 317 244 269 345 125 324 314 321 105 336 308 337 247 95 142 304 313 290 293 262 289 302 304 303 268 357 352 296 269 258 261 260 289
244 31 42 346 334 313 244 237 40 53 24 335 271 261 162 212 315 319 331 315 358 353 344 314 261 261 275 296 266 88 249 358 299 277 270 267 262 216 234 262 265 261 254 273 285
210 257 23 344 338 270 246 63 110 53 334 271 285 290 297 354 303 333 317 118 330 247 330 320 293 285 334 280 240 252 344 247 210 276 287 285 310 298 310 283 267 299 293 327 307
217 229 6 346 310 245 12 67 104 57 355 308 307 284 292 313 296 316 289 318 288 198 289 298 286 276 268 251 284 235 226 224 287 275 272 288 280 341 326 302 294 284 341 310 311
318 236 354 346 244 27 62 30 304 357 12 322 280 291 283 306 296 293 283 272 91 312 304 353 286 284 288 287 297 290 280 285 263 275 269 268 273 295 305 2 333 331 330 310 321
20 9 2 329 37 74 100 114 45 11 29 0 278 321 331 294 298 267 288 10 297 284 316 357 287 306 296 156 187 235 270 263 270 280 276 272 277 298 300 231 284 296 314 323 315
312 300 64 52 50 359 23 54 31 56 98 344 325 288 286 277 254 281 286 307 312 285 341 288 256 249 270 291 304 295 292 287 283 273 275 274 288 300 308 312 315 336 334 313 307
3 61 8 18 62 28 324 334 338 10 339 307 183 49 357 290 301 277 290 300 299 319 230 285 273 278 280 291 294 285 288 292 291 292 288 292 291 299 321 335 332 327 313 302 300
8 331 166 103 299 306 121 36 332 353 282 141 271 274 296 285 285 291 301 293 281 272 274 300 282 293 287 284 287 299 290 287 303 315 308 300 302 308 319 323 326 309 300 305 307
25 27 289 118 173 280 57 342 319 338 140 283 309 306 296 316 315 291 286 280 274 280 288 281 278 303 287 307 309 291 327 311 312 306 312 303 304 316 328 322 307 315 307 302 304